Regional Weather Roundup
Issued by NWS Kansas City/Pleasant Hill, MO

Home | Current Version | Previous Version | Graphics & Text | Print | Product List | Glossary Off
Versions: 1 2 3 4 5 6 7 8 9 10 11 12 13 14 15 16 17 18 19 20 21 22 23 24 25 26 27 28 29 30 31 32 33 34 35 36 37 38 39 40 41 42 43 44 45 46 47 48 49 50

000
ASUS43 KEAX 111611
RWREAX

WEATHER ROUNDUP FOR EASTERN KANSAS AND NORTHWEST MISSOURI
NATIONAL WEATHER SERVICE KANSAS CITY/PLEASANT HILL MO
1100 AM CDT FRI JUL 11 2014

KSZ040-057-103>105-MOZ028-029-037-043-111700-
...KANSAS CITY METROPOLITAN AREA...

CITY           SKY/WX    TMP DP  RH WIND       PRES   REMARKS
K.C. INTL      PTSUNNY   79  69  71 S10       30.06R
K.C. DOWNTOWN  PTSUNNY   81  69  67 S7        30.06R
LEES SUMMIT    MOSUNNY   78  69  73 S12       30.07S
OLATHE - IXD   MOSUNNY   82  70  66 S16G24    30.06S
OLATHE - OJC   MOSUNNY   79  71  76 S12G18    30.05F
LAWRENCE       PTSUNNY   83  70  64 SW9       30.04S

$$

MOZ001>008-011>017-020>025-030>033-038>040-044>046-053-054-111700-
...NORTHERN AND CENTRAL MISSOURI...

CITY           SKY/WX    TMP DP  RH WIND       PRES   REMARKS
ST. JOSEPH     PTSUNNY   79  71  76 S12       30.05R
MOSBY          MOSUNNY   79  68  69 S8        30.07R
WARRENSBURG    MOSUNNY   79  68  69 S10       30.07F
WHITEMAN AFB   MOSUNNY   81  66  59 S15       30.08F
CLINTON        MOSUNNY   82  72  69 SW9       30.10S
SEDALIA        MOSUNNY   84  72  67 S13       30.11S
WARSAW         NOT AVBL
MARSHALL         N/A     84  73  70 S9        30.09F HAZE    HX  91
CHILLICOTHE      N/A     79  68  69 S10       30.08S
KIRKSVILLE     PTSUNNY   78  68  71 SE12      30.10F

$$

MOZ041-047>049-056>058-063>065-088>090-097-111700-
...EASTERN AND SOUTHERN MISSOURI...

CITY           SKY/WX    TMP DP  RH WIND       PRES   REMARKS
ST. LOUIS INTL MOSUNNY   83  63  50 SE9       30.19R
SPIRIT OF STL  MOSUNNY   82  65  56 SE8       30.15F
COLUMBIA       SUNNY     81  69  67 SE12      30.13F
JEFFERSON CITY SUNNY     81  68  64 SE9       30.12F
MEXICO         SUNNY     81  73  78 S9        30.14F
HANNIBAL       SUNNY     82  63  51 SE7       30.14F
ROLLA          SUNNY     80  66  62 S12       30.15F
LEBANON        SUNNY     82  68  61 S8        30.16F
OSAGE BEACH    MOSUNNY   82  68  61 S12       30.13F
SPRINGFIELD    SUNNY     82  70  66 S12       30.14F
BRANSON        MOSUNNY   86  70  58 S5        30.18S HX  90
NEVADA         SUNNY     82  72  69 S10       30.11R
JOPLIN         SUNNY     85  69  58 SW12G21   30.12R
WEST PLAINS    PTSUNNY   78  67  68 S5        30.21R
PIEDMONT       SUNNY     81  68  65 CALM      30.19R
MALDEN         MOSUNNY   84  68  58 S7        30.17F

$$

IAZ060-094-KSZ022-034>040-054-083-096-NEZ052-066-093-111700-
...KANSAS...SOUTHEAST NEBRASKA AND IOWA...

CITY           SKY/WX    TMP DP  RH WIND       PRES   REMARKS
TOPEKA         PTSUNNY   82  68  62 S8        30.04R
MANHATTAN      PTSUNNY   84  67  56 SW6       30.01S
EMPORIA        MOSUNNY   85  70  60 S13G21    30.04S
CHANUTE        SUNNY     83  70  64 SW16      30.07F
WICHITA        MOSUNNY   85  67  54 SW15      30.03R
OMAHA          CLOUDY    72  66  81 SE16      29.98F
LINCOLN        PTSUNNY   77  68  73 S15       29.98F
FALLS CITY     MOSUNNY   80  69  69 S14       30.02R
LAMONI         CLOUDY    71  67  87 SE6       30.07R
DES MOINES     CLOUDY    69  65  86 S5        30.07S

$$




USA.gov is the U.S. government's official web portal to all federal, state and local government web resources and services.